[[{"header":{"parameterUnit":"m.s-1","parameterCategory":1,"la1":30.2991,"la2":30.254,"lo1":-89.0895,"lo2":-89.0444,"dy":0.0017,"dx":0.0017,"nx":28,"ny":28,"refTime":"2024-06-25T21:00:00:Z","depth":0,"parameterNumber":2,"parameterNumberName":"U-component_of_WINDS"},"data":[0,0,0,0,0,0,0,0,0,0,0,0,0,0,0,0,0,0,0,0,0,0,0,0,0,0,0,0,0,0,0,0,0,0,0,0,0,0,0,0,0,0,0,0,0,0,0,0,0,0,0,0,0,0,0,0,0,0,3.2736,3.2737,0,3.2828,3.2829,3.283,3.284,3.2839,3.2838,3.2837,3.2934,3.2937,3.2941,0,0,0,0,0,0,0,0,0,0,0,0,0,3.257,3.2573,3.2736,3.2737,3.2738,3.2828,3.2829,3.2831,3.284,3.2839,3.2838,3.2837,3.2933,3.2937,3.2941,0,0,0,0,0,0,0,0,0,0,0,0,0,3.265,3.2574,3.2736,3.2754,3.2756,3.2828,3.2829,3.2831,3.2841,3.2839,3.2838,3.2836,3.2932,3.2937,3.2942,3.3002,0,0,3.2958,3.296,0,0,0,0,0,0,0,0,3.2646,3.2656,3.275,3.2753,3.2756,3.2821,3.2806,3.2888,3.2841,3.2809,3.2837,3.2836,3.2898,3.2906,3.2926,3.3007,3.3011,3.2958,3.2961,3.2963,3.2965,0,0,0,0,0,0,0,3.264,3.2652,3.2772,3.2751,3.2755,3.2758,3.2768,3.2822,3.286,3.2811,3.2812,3.2823,3.2899,3.2921,3.2928,3.3012,3.2958,3.2962,3.2966,3.2968,3.3147,3.3148,0,0,0,0,0,0,3.2631,3.2648,3.2769,3.2775,3.2696,3.2762,3.2773,3.2802,3.2859,3.2867,3.2824,3.2823,3.2913,3.2922,3.2932,3.3005,3.2963,3.2968,3.2971,3.3145,3.3147,3.3149,0,0,0,0,0,0,3.2627,3.2642,3.2766,3.2712,3.2728,3.2767,3.2798,3.2804,3.2826,3.2869,3.2876,3.2839,3.2912,3.2925,3.2984,3.3009,3.2971,3.2975,3.3143,3.3146,3.3148,3.3154,0,0,0,0,0,0,3.2622,3.264,3.2663,3.2712,3.2731,3.2816,3.28,3.2807,3.2835,3.2834,3.2885,3.2892,3.2912,3.2977,3.2989,3.3015,3.2979,3.3141,3.3144,3.3147,3.3151,3.3156,3.316,0,0,0,0,0,3.2617,3.2661,3.2664,3.2679,3.276,3.2817,3.2828,3.2849,3.2837,3.286,3.2888,3.2891,3.3005,3.2983,3.2997,3.3025,3.314,3.3144,3.3147,3.3149,3.3155,3.316,0,0,0,0,0,0,3.2614,3.2668,3.2671,3.2733,3.2771,3.2819,3.2848,3.2854,3.2896,3.2894,3.2919,3.2931,3.2989,3.3014,3.2988,3.3087,3.3071,3.3078,3.3068,3.3074,3.3078,3.307,3.2984,0,0,0,0,0,3.2621,3.2662,3.2708,3.2758,3.2776,3.2809,3.2835,3.2848,3.2888,3.2904,3.2936,3.2975,3.302,3.3048,3.3092,3.3156,3.3167,3.3183,3.3187,3.319,3.3195,3.323,3.3237,3.3161,3.3161,3.3161,0,0,3.2635,3.267,3.2694,3.2758,3.2788,3.2831,3.2822,3.2868,3.29,3.2911,3.2968,3.2994,3.304,3.3101,3.313,3.3123,3.3219,3.3195,3.3197,3.32,3.3234,3.3242,3.3248,3.3164,3.3163,3.3163,0,0,3.2682,3.2713,3.2757,3.2788,3.2834,3.2856,3.2867,3.2915,3.2931,3.299,3.2999,3.3038,3.3115,3.3146,3.3172,3.3233,3.3237,3.3247,3.3268,3.3302,3.3308,3.3313,3.3334,3.3341,3.3252,3.3252,3.3252,0,3.2693,3.2757,3.278,3.2825,3.2853,3.2865,3.2911,3.294,3.2998,3.3017,3.3009,3.3105,3.3137,3.3206,3.322,3.3242,3.3255,3.324,3.3305,3.3311,3.3316,3.3336,3.3344,3.3253,3.3253,3.3253,3.3253,0,3.2769,3.2814,3.2845,3.2899,3.2931,3.2977,3.3006,3.3036,3.3047,3.307,3.313,3.3168,3.3219,3.3238,3.3249,3.3308,3.3303,3.33,3.3284,3.3324,3.3342,3.335,3.3254,3.3254,3.3254,3.3253,0,0,3.2814,3.2882,3.2893,3.2918,3.297,3.3005,3.3052,3.3102,3.3126,3.3167,3.3206,3.3271,3.3269,3.3298,3.3314,3.3344,3.3388,3.3338,3.3339,3.3344,3.3455,3.3455,3.3463,3.3392,3.3394,3.3395,3.345,0,3.2866,3.2948,3.297,3.3039,3.3081,3.3094,3.3134,3.3171,3.3194,3.3234,3.326,3.3305,3.3299,3.3317,3.3348,3.3376,3.341,3.3373,3.3429,3.343,3.3414,3.3473,3.3474,3.3523,3.3458,3.3459,3.346,0,3.2936,3.2977,3.305,3.3097,3.3116,3.3151,3.3199,3.3236,3.3279,3.3294,3.3327,3.334,3.339,3.3374,3.3442,3.3416,3.3441,3.3459,3.3461,3.3465,3.3446,3.3477,3.354,3.3547,3.3472,3.3471,3.3471,0,3.296,3.3034,3.3087,3.3108,3.3165,3.319,3.3215,3.3256,3.3284,3.3327,3.3345,3.3393,3.3419,3.3456,3.3481,3.3467,3.3548,3.3534,3.3561,3.356,3.3575,3.3573,3.3641,3.3595,3.3595,3.3594,3.3594,0,3.3013,3.3057,3.3098,3.313,3.318,3.3207,3.3256,3.3281,3.3318,3.3356,3.3372,3.3407,3.344,3.3481,3.3502,3.3555,3.3567,3.358,3.3585,3.3577,3.3575,3.3592,3.3588,3.3597,3.3596,3.3596,3.3595,0,3.3047,3.3076,3.3135,3.3184,3.3198,3.3232,3.3274,3.3307,3.3331,3.338,3.3392,3.3431,3.3479,3.351,3.3571,3.3586,3.3643,3.3648,3.3628,3.363,3.3655,3.3651,3.3734,3.3745,3.3693,3.3693,3.3694,0,3.3078,3.3112,3.3165,3.3191,3.3216,3.3259,3.3288,3.3316,3.3345,3.3397,3.3423,3.3472,3.3513,3.359,3.3624,3.3671,3.3676,3.3701,3.3683,3.3674,3.3674,3.3671,3.3674,3.3704,3.3704,3.3704,3.3705,0,3.3129,3.3142,3.3183,3.323,3.3264,3.3302,3.334,3.3361,3.3395,3.3428,3.3477,3.3509,3.3572,3.362,3.3671,3.3697,3.3707,3.3711,3.3719,3.3711,3.3697,3.3703,3.3634,3.3708,3.3708,3.3707,3.3707,3.3707,3.3161,3.3192,3.3234,3.3279,3.3311,3.3346,3.3379,3.3408,3.3449,3.3501,3.3516,3.3567,3.361,3.3679,3.3707,3.3748,3.3744,3.3757,3.376,3.3762,3.3761,3.3693,3.3757,3.3757,3.3757,3.3757,3.3757,0,3.3212,3.324,3.3282,3.3334,3.337,3.3376,3.3419,3.3448,3.3493,3.3532,3.3571,3.3628,3.3675,3.3714,3.3763,3.3788,3.3793,3.38,3.3797,3.3803,3.3762,3.3749,3.3794,3.3794,3.3794,3.3794,3.3794,3.3794,3.3242,3.3294,3.3313,3.3381,3.3409,3.3458,3.3482,3.3515,3.3546,3.3608,3.3647,3.3672,3.3711,3.3763,3.3807,3.3817,3.3833,3.3838,3.3849,3.381,3.3806,3.3802,3.3789,3.3842,3.3842,3.3886,3.3886,3.3887]},{"header":{"parameterUnit":"m.s-1","parameterCategory":1,"la1":30.2991,"la2":30.254,"lo1":-89.0895,"lo2":-89.0444,"dy":0.0017,"dx":0.0017,"nx":28,"ny":28,"refTime":"2024-06-25T21:00:00:Z","depth":0,"parameterNumber":3,"parameterNumberName":"V-component_of_WINDS"},"data":[0,0,0,0,0,0,0,0,0,0,0,0,0,0,0,0,0,0,0,0,0,0,0,0,0,0,0,0,0,0,0,0,0,0,0,0,0,0,0,0,0,0,0,0,0,0,0,0,0,0,0,0,0,0,0,0,0,0,4.4729,4.4732,0,4.4969,4.4972,4.4974,4.5031,4.5029,4.5028,4.5026,4.5264,4.5271,4.5279,0,0,0,0,0,0,0,0,0,0,0,0,0,4.4312,4.4319,4.4729,4.4732,4.4735,4.4969,4.4972,4.4975,4.5031,4.5029,4.5027,4.5025,4.5261,4.5271,4.528,0,0,0,0,0,0,0,0,0,0,0,0,0,4.4516,4.4322,4.4728,4.4791,4.4799,4.4968,4.4972,4.4976,4.5032,4.5029,4.5027,4.5024,4.5258,4.527,4.5281,4.5402,0,0,4.5317,4.5322,0,0,0,0,0,0,0,0,4.4505,4.4531,4.4779,4.4787,4.4797,4.4968,4.4912,4.5119,4.5032,4.4943,4.5026,4.5023,4.5167,4.5186,4.5236,4.5413,4.5423,4.5318,4.5325,4.533,4.5334,0,0,0,0,0,0,0,4.449,4.4521,4.4824,4.4782,4.4793,4.4805,4.4831,4.4951,4.5065,4.4951,4.4955,4.4983,4.5171,4.5224,4.5242,4.5427,4.5318,4.5328,4.5336,4.534,4.5714,4.5717,0,0,0,0,0,0,4.4466,4.4509,4.4816,4.4831,4.4642,4.4814,4.4844,4.4915,4.5064,4.5085,4.4985,4.4985,4.5206,4.5228,4.525,4.5402,4.533,4.5341,4.5348,4.5712,4.5715,4.5718,0,0,0,0,0,0,4.4457,4.4493,4.4806,4.4672,4.4712,4.4824,4.4904,4.4921,4.4975,4.509,4.511,4.502,4.5205,4.5234,4.5364,4.5411,4.5347,4.5357,4.5708,4.5713,4.5717,4.5705,0,0,0,0,0,0,4.4445,4.449,4.4538,4.4672,4.4719,4.4919,4.4907,4.4927,4.4996,4.4998,4.5128,4.5147,4.5205,4.5347,4.5376,4.5426,4.5366,4.5704,4.571,4.5715,4.5702,4.5708,4.5714,0,0,0,0,0,4.443,4.4524,4.4541,4.4577,4.4783,4.4921,4.4948,4.5015,4.4999,4.5048,4.5122,4.5143,4.5401,4.5359,4.5393,4.5447,4.5702,4.5708,4.5715,4.5699,4.5707,4.5714,0,0,0,0,0,0,4.439,4.4543,4.4563,4.4704,4.4799,4.4931,4.4994,4.5022,4.5122,4.5119,4.5196,4.5225,4.535,4.5411,4.5363,4.5571,4.5551,4.5564,4.5527,4.5536,4.5542,4.5524,4.5376,0,0,0,0,0,4.4398,4.45,4.4627,4.4738,4.4786,4.4882,4.4944,4.4988,4.5089,4.5129,4.5213,4.5308,4.5411,4.5476,4.5577,4.5711,4.5739,4.5764,4.577,4.5775,4.5785,4.586,4.5872,4.574,4.5739,4.5739,0,0,4.4414,4.451,4.457,4.4733,4.4812,4.4913,4.4915,4.5022,4.5098,4.5144,4.5274,4.5338,4.5449,4.5582,4.5644,4.5637,4.5828,4.5783,4.5786,4.5794,4.5868,4.588,4.5891,4.5744,4.5743,4.5742,0,0,4.4497,4.458,4.4683,4.4763,4.4884,4.4947,4.4971,4.5099,4.5145,4.5276,4.5313,4.5402,4.5578,4.5655,4.5718,4.5829,4.5852,4.586,4.5892,4.5964,4.5974,4.5984,4.6023,4.6036,4.587,4.587,4.587,0,4.4501,4.4659,4.4731,4.4838,4.4907,4.4957,4.506,4.5133,4.5279,4.5325,4.5316,4.5537,4.5615,4.5766,4.5794,4.5843,4.5871,4.5845,4.5967,4.5978,4.5988,4.6026,4.6041,4.587,4.587,4.587,4.587,0,4.4658,4.4766,4.4834,4.4977,4.5055,4.5158,4.5244,4.5314,4.535,4.5414,4.5546,4.5642,4.5763,4.5802,4.5837,4.5958,4.5949,4.5952,4.5933,4.5999,4.6037,4.6052,4.5871,4.587,4.587,4.587,0,0,4.4722,4.4905,4.4928,4.4994,4.5131,4.5215,4.532,4.5441,4.5499,4.5597,4.5686,4.5834,4.5838,4.5908,4.5953,4.6016,4.6098,4.6012,4.6015,4.6024,4.6236,4.6233,4.6249,4.6113,4.6117,4.6119,4.6226,0,4.4821,4.5014,4.5082,4.524,4.534,4.5388,4.548,4.5572,4.5634,4.5726,4.5793,4.5896,4.5894,4.5937,4.6002,4.6074,4.6141,4.6067,4.6195,4.6199,4.6166,4.6268,4.6266,4.6362,4.6241,4.6244,4.6246,0,4.4962,4.5066,4.5235,4.536,4.5405,4.5486,4.5602,4.569,4.5795,4.5836,4.5915,4.5956,4.6065,4.6039,4.619,4.6138,4.6194,4.6237,4.6243,4.6257,4.6226,4.6285,4.6395,4.6409,4.6269,4.6268,4.6266,0,4.4992,4.5173,4.5298,4.5353,4.5501,4.5557,4.5621,4.5725,4.5793,4.5894,4.5938,4.6049,4.6109,4.6193,4.6262,4.6237,4.6406,4.6386,4.6441,4.6439,4.6474,4.6471,4.6594,4.651,4.651,4.651,4.651,0,4.5095,4.5196,4.5313,4.539,4.5504,4.558,4.569,4.5757,4.5848,4.5937,4.5984,4.6065,4.6151,4.6243,4.6297,4.6413,4.644,4.6474,4.6487,4.647,4.6466,4.6508,4.6503,4.6514,4.6513,4.6512,4.6512,0,4.5147,4.523,4.5369,4.5499,4.5534,4.5612,4.5723,4.5797,4.5861,4.5973,4.6003,4.6103,4.6214,4.6291,4.6432,4.6468,4.6593,4.6605,4.6559,4.6565,4.6616,4.661,4.6771,4.6795,4.6694,4.6695,4.6696,0,4.5207,4.5287,4.5426,4.5491,4.5556,4.5658,4.5729,4.5806,4.5877,4.6003,4.6062,4.6177,4.6273,4.6447,4.653,4.6638,4.6653,4.6702,4.667,4.665,4.6654,4.6648,4.6656,4.6707,4.6707,4.6708,4.6708,0,4.5306,4.5343,4.5445,4.5561,4.5645,4.5739,4.5834,4.5883,4.5976,4.6053,4.6169,4.6243,4.6389,4.6502,4.6618,4.6681,4.671,4.6718,4.6737,4.672,4.669,4.6707,4.6572,4.6714,4.6713,4.6713,4.6713,4.6712,4.5364,4.5437,4.5547,4.5658,4.5738,4.5826,4.5903,4.5978,4.6076,4.6203,4.6242,4.6361,4.6463,4.6623,4.6688,4.6781,4.6777,4.6804,4.681,4.6816,4.6816,4.6675,4.6802,4.6802,4.6802,4.6802,4.6802,0,4.5465,4.5538,4.564,4.5773,4.586,4.5882,4.5988,4.6059,4.6165,4.6259,4.6353,4.6485,4.6594,4.6687,4.6799,4.6856,4.6872,4.6883,4.6879,4.6893,4.6812,4.6785,4.6868,4.6868,4.6868,4.6868,4.6868,4.6868,4.5527,4.5652,4.5702,4.5866,4.5939,4.6059,4.6117,4.6197,4.6273,4.6419,4.6512,4.6572,4.6665,4.6785,4.6886,4.691,4.6949,4.6957,4.6984,4.6907,4.6899,4.6892,4.6867,4.6965,4.6965,4.7057,4.7058,4.7059]}]]